sat.trackr.live / text

‹ back to catalog

KUIPER-00605

NORAD 69288 · 2026-118X

PAYLOAD ACTIVE UNKNOWN

§ Identity

Operator
Country
US
Launch date
2026-05-29
Launch site
AFETR
Launch vehicle
Mass (kg)
RCS (m²)

External: N2YO · Heavens-Above · Gunter

§ Orbital elements

Epoch: 2026-09-19T12:12:50.820192Z

Period
97.30 min
Inclination
51.9010°
Eccentricity
0.0000315
Mean motion
14.79928902 rev/d
Perigee alt
629.3 km
Apogee alt
629.8 km
Semi-major
7,007.7 km
B*
1.3489e-4
RAAN
346.0584°
Arg perigee
87.1865°
Mean anomaly
272.9133°
Rev number
1,809

§ Raw data

KUIPER-006051 69288U 26118X   26262.50892153  .00000807  00000+0  13489-3 0  99942 69288  51.9010 346.0584 0000315  87.1865 272.9133 14.79928902 18091

JSON: /api/v1/satellites/69288 · /tle

For live sub-satellite position, see the globe view (requires WebGL).

§ Visibility from observer

Set your observer location to see the next 7 days of passes ≥ 10°. The values pass through the URL so the page stays shareable.

No JS? Fill the form by hand. The geolocation button needs JavaScript.